330  
ASUS43 KBIS 251910  
RWRND  
 
NORTH DAKOTA REGIONAL WEATHER ROUNDUP  
NATIONAL WEATHER SERVICE BISMARCK ND  
200 PM CDT TUE SEP 25 2018  
 
NOTE: "FAIR" INDICATES FEW OR NO CLOUDS BELOW 12,000 FEET WITH NO  
SIGNIFICANT WEATHER AND/OR S TO VISIBILITY
.  
 
 
NDZ001>003-009>011-017-252000-  
NORTHWEST NORTH DAKOTA  
 
CITY SKY/WX TMP DP RH WIND PRES REMARKS
 
WILLISTON CLOUDY 52 39 61 NW15G25 30.08S  
MINOT PTSUNNY 54 44 69 W15 29.98F  
MINOT AFB MOSUNNY 55 41 58 NW12G21 29.96F  

 
 
NDZ018>021-031>035-040>046-252000-  
SOUTHWEST NORTH DAKOTA  
 
CITY SKY/WX TMP DP RH WIND PRES REMARKS
 
BISMARCK CLOUDY 55 43 63 NW12 30.01F  
DICKINSON PTSUNNY 50 39 66 NW22G30 30.06S  
GARRISON N/A 46 44 93 W9 30.01R  
HETTINGER ARPT PTSUNNY 52 39 61 NW21G30 30.10S  

 
 
NDZ004>008-012>016-024-026-027-054-252000-  
NORTHEAST NORTH DAKOTA  
 
CITY SKY/WX TMP DP RH WIND PRES REMARKS
 
GRAND FORKS PTSUNNY 50 36 58 N8G17 29.99S  
GRND FRKS AFB PTSUNNY 50 34 53 NW7 29.98F  
DEVILS LAKE FAIR 51 34 52 N7 29.98F  

 
 
NDZ022-023-025-028>030-036>039-047>053-252000-  
SOUTHEAST NORTH DAKOTA  
 
CITY SKY/WX TMP DP RH WIND PRES REMARKS
 
FARGO CLOUDY 52 40 63 W13 29.99F  
JAMESTOWN MOSUNNY 56 41 57 NW10 29.98F  

 
 
 
 
CLICK HERE TO GO TO PREVIOUS BULLETINS.

The Nexlab ND Page Main Text Page